マスター彗星

C/2016 N4 ( MASTER )

English version
Home page
Updated on July 8, 2017

---------------------------------------------------------------------

・ プロフィール

発見日 2016年7月15日
発見光度 16.8等
発見者 Mobile Astronomical System of the Telescope-Robots (MASTER)

・ 写真集

・ 軌道要素

Epoch 2017 Sept. 4.0 TT = JDT 2458000.5
T 2017 Sept. 16.59731 TT                                MPCW
q   3.1991189            (2000.0)            P               Q
z  +0.0001936      Peri.   55.95517     +0.58263340     -0.80665812
 +/-0.0000010      Node   354.03141     -0.14120864     +0.01973008
e   0.9993805      Incl.   72.55728     +0.80037394     +0.59068892
From 708 observations 2016 July 15-2017 July 4, mean residual 0".5.

・ 星図

・ 光度変化

        m1 = 6.5 + 5 logΔ + 10.0 log r

---------------------------------------------------------------------

軌道要素はM.P.E.C. 2017-N58に掲載されたものです。
星図はステラナビゲータ Ver.10 (アストロアーツ) で作成したものです。
光度グラフはComet for Windowsで作成したものです。

---------------------------------------------------------------------

Copyright(C) Seiichi Yoshida (comet@aerith.net). All rights reserved.